K1KSR Weather Reports


Display with metric or nautical units.
time (UTC)temp
F
wind
direction
speed
MPH
gust
MPH
rain 1hr
in
rain 24hr
in
rain mn
in
humidity
%
barometer
mb
20260504222010 64 67 0.0 5.0 0.00 0.02 0.02 47 1004.8
20260504221520 64 92 0.0 5.0 0.00 0.02 0.02 47 1004.8
20260504221008 64 302 0.0 2.0 0.00 0.02 0.02 46 1004.9
20260504220509 64 208 0.0 3.0 0.00 0.02 0.02 47 1004.8
20260504220026 64 185 0.0 3.0 0.00 0.02 0.02 47 1004.9
20260504215507 64 185 0.0 2.0 0.00 0.02 0.02 46 1005.0
20260504215012 64 225 0.0 4.0 0.00 0.02 0.02 45 1005.0
20260504214527 64 312 1.0 8.0 0.00 0.02 0.02 47 1005.1
20260504214008 65 352 2.0 8.0 0.00 0.02 0.02 45 1005.1
20260504213512 65 242 2.0 7.0 0.00 0.02 0.02 44 1005.0
20260504213042 65 221 1.0 8.0 0.00 0.02 0.02 44 1005.0
20260504212506 65 317 0.0 10.0 0.00 0.02 0.02 44 1005.0
20260504212008 66 248 3.0 10.0 0.00 0.02 0.02 44 1005.0
20260504211528 66 236 2.0 7.0 0.00 0.02 0.02 43 1004.9
20260504211008 66 241 2.0 7.0 0.00 0.02 0.02 44 1004.8
20260504210504 65 216 2.0 8.0 0.01 0.02 0.02 44 1004.9
20260504210008 65 117 2.0 9.0 0.01 0.02 0.02 46 1004.8
20260504205504 64 282 2.0 12.0 0.01 0.02 0.02 48 1004.8
20260504205005 64 40 2.0 12.0 0.01 0.02 0.02 47 1004.9
20260504204519 63 190 2.0 11.0 0.01 0.02 0.02 49 1004.8
20260504204007 63 145 3.0 8.0 0.01 0.02 0.02 49 1004.8
20260504203505 63 210 2.0 7.0 0.01 0.02 0.02 49 1004.8
20260504203020 63 255 2.0 6.0 0.01 0.02 0.02 50 1004.8
20260504202506 63 306 1.0 6.0 0.01 0.02 0.02 49 1004.8
20260504202007 64 254 2.0 8.0 0.01 0.02 0.02 50 1004.7
20260504201515 64 352 2.0 11.0 0.01 0.02 0.02 49 1004.7
20260504201006 64 215 5.0 12.0 0.01 0.02 0.02 48 1004.7
20260504200510 64 229 4.0 12.0 0.00 0.01 0.01 49 1004.7
20260504200024 63 293 1.0 7.0 0.00 0.01 0.01 53 1004.6
20260504195503 63 335 2.0 6.0 0.00 0.01 0.01 54 1004.8
20260504195004 62 244 2.0 10.0 0.00 0.01 0.01 55 1004.9
20260504194508 61 132 3.0 11.0 0.00 0.01 0.01 55 1004.9
20260504194004 61 259 4.0 12.0 0.00 0.01 0.01 57 1004.8
20260504193505 61 244 4.0 12.0 0.00 0.01 0.01 56 1004.9
20260504193008 61 197 3.0 10.0 0.00 0.01 0.01 59 1004.9
20260504192505 60 246 2.0 10.0 0.00 0.01 0.01 60 1005.0
20260504192007 60 201 0.0 7.0 0.00 0.01 0.01 62 1005.0
20260504191516 58 252 1.0 7.0 0.00 0.01 0.01 65 1005.2
20260504191007 58 126 3.0 7.0 0.00 0.01 0.01 65 1005.1
20260504190507 57 341 2.0 6.0 0.00 0.01 0.01 67 1005.2
20260504190023 56 303 2.0 6.0 0.00 0.01 0.01 69 1005.3
20260504185508 56 202 1.0 4.0 0.00 0.01 0.01 72 1005.4
20260504185009 56 248 1.0 3.0 0.00 0.01 0.01 72 1005.4
20260504184524 55 308 0.0 3.0 0.00 0.01 0.01 76 1005.4
20260504184004 55 230 0.0 2.0 0.00 0.01 0.01 74 1005.4
20260504183507 55 265 0.0 2.0 0.00 0.01 0.01 75 1005.4
20260504183007 54 317 0.0 2.0 0.01 0.01 0.01 77 1005.4
20260504182504 54 328 0.0 1.0 0.01 0.01 0.01 80 1005.4
20260504182005 53 328 0.0 1.0 0.01 0.01 0.01 79 1005.4
20260504181515 53 331 0.0 0.0 0.01 0.01 0.01 80 1005.5
20260504181008 53 328 0.0 0.0 0.01 0.01 0.01 80 1005.5
20260504180506 53 328 0.0 1.0 0.01 0.01 0.01 81 1005.5
20260504180019 53 318 0.0 2.0 0.01 0.01 0.01 81 1005.7
20260504175504 53 318 0.0 2.0 0.01 0.01 0.01 81 1005.7
20260504175005 53 55 0.0 2.0 0.01 0.01 0.01 81 1005.8
20260504174520 53 352 0.0 4.0 0.01 0.01 0.01 80 1005.9
20260504174009 54 53 2.0 4.0 0.01 0.01 0.01 76 1005.9
20260504173508 55 11 0.0 10.0 0.01 0.01 0.01 74 1005.8
20260504173007 56 343 3.0 9.0 0.00 0.00 0.00 68 1005.6
20260504172504 57 350 2.0 9.0 0.00 0.00 0.00 63 1005.4
20260504172002 59 255 2.0 9.0 0.00 0.00 0.00 59 1005.3
20260504171510 60 276 3.0 5.0 0.00 0.00 0.00 54 1005.0
20260504171006 60 336 1.0 8.0 0.00 0.00 0.00 52 1004.8
20260504170507 60 217 2.0 8.0 0.00 0.00 0.00 50 1004.6
20260504151013 56 246 4.0 13.0 0.00 0.05 0.00 59 1005.5
20260504150504 56 247 5.0 13.0 0.00 0.06 0.00 58 1005.7
20260504141009 54 181 4.0 11.0 0.00 0.09 0.00 56 1006.5
20260504140510 53 199 1.0 11.0 0.00 0.09 0.00 57 1006.6
20260504130507 51 311 1.0 10.0 0.00 0.13 0.00 58 1007.3
20260504110508 34 221 0.0 0.0 0.00 0.17 0.00 88 1007.6
20260504100507 30 219 0.0 0.0 0.00 0.19 0.00 89 1007.4
20260504082004 30 219 0.0 0.0 0.00 0.23 0.00 89 1007.0
20260504081508 30 229 0.0 0.0 0.00 0.23 0.00 89 1007.1
20260504081003 30 229 0.0 0.0 0.00 0.23 0.00 88 1007.1
20260504080502 30 229 0.0 0.0 0.00 0.23 0.00 88 1007.1
20260504050508 38 254 0.0 3.0 0.00 0.23 0.00 73 1006.6
20260504045509 38 178 0.0 2.0 0.00 0.23 0.00 72 1006.6
20260504045004 38 190 0.0 5.0 0.00 0.23 0.00 73 1006.6
20260504044514 37 242 1.0 5.0 0.00 0.23 0.00 73 1006.5
20260504044005 37 229 0.0 2.0 0.00 0.23 0.00 73 1006.6
20260504043504 37 216 0.0 2.0 0.00 0.23 0.00 73 1006.6
20260504043022 37 214 0.0 2.0 0.00 0.23 0.00 74 1006.6
20260504042506 37 224 0.0 2.0 0.00 0.23 0.00 73 1006.6
20260504042008 37 232 0.0 2.0 0.00 0.23 0.00 74 1006.6
20260504041519 37 217 0.0 2.0 0.00 0.23 0.00 74 1006.6
20260504041007 38 280 0.0 2.0 0.00 0.23 0.00 73 1006.5
20260504040508 38 280 0.0 0.0 0.00 0.23 0.00 71 1006.5
20260504040029 38 280 0.0 0.0 0.00 0.23 0.00 70 1006.4
20260504035508 38 279 0.0 0.0 0.00 0.23 0.23 70 1006.3
20260504035009 38 279 0.0 2.0 0.00 0.23 0.23 69 1006.3
20260504034526 39 277 0.0 2.0 0.00 0.23 0.23 69 1006.3
20260504034008 39 279 0.0 2.0 0.00 0.23 0.23 69 1006.4
20260504033504 39 244 0.0 2.0 0.00 0.23 0.23 68 1006.3
20260504033013 39 300 0.0 2.0 0.00 0.23 0.23 69 1006.3
20260504032504 39 319 0.0 2.0 0.00 0.23 0.23 67 1006.3
20260504032006 40 319 0.0 2.0 0.00 0.23 0.23 67 1006.3
20260504031518 40 286 0.0 2.0 0.00 0.23 0.23 66 1006.3
20260504031008 40 198 0.0 2.0 0.00 0.23 0.23 66 1006.2
20260504030508 40 232 0.0 2.0 0.00 0.23 0.23 65 1006.2
20260504030024 40 242 0.0 2.0 0.00 0.23 0.23 65 1006.1
20260504025507 41 229 0.0 2.0 0.00 0.23 0.23 64 1006.0
20260504025007 41 291 0.0 2.0 0.00 0.23 0.23 63 1005.9
20260504024523 41 266 0.0 3.0 0.00 0.23 0.23 64 1005.9
20260504024008 41 286 0.0 5.0 0.00 0.23 0.23 64 1005.9
20260504023509 41 321 1.0 5.0 0.00 0.23 0.23 64 1005.9
20260504023025 42 337 0.0 2.0 0.00 0.23 0.23 62 1005.9
20260504022511 42 317 0.0 3.0 0.00 0.23 0.23 61 1005.8
20260504022005 42 246 1.0 3.0 0.00 0.23 0.23 61 1005.9
20260504021513 42 192 0.0 2.0 0.00 0.23 0.23 61 1005.8
20260504021005 42 279 0.0 3.0 0.00 0.23 0.23 61 1005.8
20260504020505 42 309 0.0 3.0 0.00 0.23 0.23 62 1005.7
20260504020018 42 26 0.0 2.0 0.00 0.23 0.23 60 1005.7
20260504015509 42 348 0.0 3.0 0.00 0.23 0.23 59 1005.7
20260504015008 43 9 0.0 3.0 0.00 0.23 0.23 59 1005.7
20260504014522 43 265 0.0 2.0 0.00 0.23 0.23 58 1005.6
20260504014009 43 142 0.0 2.0 0.00 0.23 0.23 58 1005.5
20260504013508 43 107 0.0 6.0 0.00 0.23 0.23 58 1005.5
20260504013031 43 199 0.0 6.0 0.00 0.23 0.23 58 1005.4
20260504012516 43 341 0.0 6.0 0.00 0.23 0.23 58 1005.4
20260504012010 43 24 0.0 6.0 0.00 0.23 0.23 59 1005.3
20260504011527 43 351 0.0 6.0 0.00 0.23 0.23 58 1005.2
20260504011012 43 309 0.0 3.0 0.00 0.23 0.23 56 1005.1
20260504010507 44 77 0.0 2.0 0.00 0.23 0.23 56 1005.1
20260504010015 44 27 0.0 2.0 0.00 0.23 0.23 57 1005.0
20260504005504 44 9 0.0 6.0 0.00 0.23 0.23 58 1005.0
20260504005005 44 259 0.0 6.0 0.00 0.23 0.23 59 1004.8
20260504004520 44 52 0.0 4.0 0.00 0.23 0.23 57 1004.8
20260504004009 44 341 0.0 4.0 0.00 0.23 0.23 56 1004.7
20260504003509 45 153 0.0 2.0 0.00 0.23 0.23 55 1004.6
20260504003023 45 261 0.0 2.0 0.00 0.23 0.23 54 1004.6
20260504002508 45 5 0.0 2.0 0.00 0.23 0.23 53 1004.5
20260504002010 46 337 1.0 2.0 0.00 0.23 0.23 54 1004.5
20260504001528 46 10 0.0 3.0 0.00 0.23 0.23 52 1004.4
20260504001011 46 40 1.0 5.0 0.00 0.23 0.23 52 1004.4
20260504000514 46 352 1.0 5.0 0.00 0.23 0.23 51 1004.3
20260504000027 46 111 1.0 5.0 0.00 0.23 0.23 50 1004.2
20260503235507 47 360 1.0 4.0 0.00 0.23 0.23 51 1004.1
20260503235006 47 14 1.0 8.0 0.00 0.23 0.23 49 1004.0
20260503234514 47 78 2.0 8.0 0.00 0.23 0.23 50 1003.8
20260503234008 47 329 2.0 7.0 0.00 0.23 0.23 51 1003.8
20260503233508 48 5 1.0 7.0 0.00 0.23 0.23 50 1003.7
20260503233021 48 25 3.0 7.0 0.00 0.23 0.23 49 1003.6
20260503232509 48 333 2.0 6.0 0.00 0.23 0.23 48 1003.5
20260503232009 49 44 2.0 7.0 0.00 0.23 0.23 48 1003.4
20260503231524 49 338 3.0 7.0 0.00 0.23 0.23 47 1003.3
20260503231009 49 300 1.0 11.0 0.00 0.23 0.23 47 1003.3
20260503230509 49 311 2.0 11.0 0.00 0.23 0.23 47 1003.2
20260503230026 49 5 1.0 4.0 0.00 0.23 0.23 52 1003.1
20260503225513 49 342 1.0 4.0 0.00 0.23 0.23 51 1003.0
20260503225008 49 352 1.0 9.0 0.00 0.23 0.23 49 1002.8
20260503224531 49 46 2.0 9.0 0.00 0.23 0.23 49 1002.7
20260503224011 49 321 2.0 6.0 0.00 0.23 0.23 51 1002.8
20260503223509 49 332 1.0 4.0 0.00 0.23 0.23 50 1002.7
20260503223021 49 326 2.0 4.0 0.00 0.23 0.23 50 1002.6
20260503222507 50 9 1.0 4.0 0.00 0.23 0.23 50 1002.5